Windsor Heights, WV

8:47 PM EDT on August 24, 2016 (GMT -0400)
Wheeling-Ohio County

Weather History for KHLG - March, 2013

Change the Weather History Date:

Saturday, March 23, 2013

  Actual Average Record
Temperature  
Mean Temperature 36 °F 43 °F  
Max Temperature 48 °F 52 °F 82 °F (2012)
Min Temperature 24 °F 33 °F 17 °F (2014)
Degree Days  
Heating Degree Days 29 22  
Month to date heating degree days 678 608  
Since 1 July heating degree days 4690 4775  
Cooling Degree Days 0    
Month to date cooling degree days 0  
Year to date cooling degree days 0  
Moisture  
Dew Point 18 °F    
Average Humidity 52    
Maximum Humidity 75    
Minimum Humidity 28    
Precipitation  
Precipitation 0.00 in 0.11 in 1.25 in (2007)
Month to date precipitation 1.00 2.21  
Sea Level Pressure  
Sea Level Pressure 30.03 in    
Wind  
Wind Speed 7 mph (WNW)    
Max Wind Speed 15 mph    
Max Gust Speed 26 mph    
Visibility 10 miles    
Events      
T = Trace of Precipitation, MM = Missing Value Source: NWS Daily Summary

Daily Weather History Graph

Daily Weather History Graph

Search for Another Location

Airport or City:

Trip Planner

Search our weather history database for the weather conditions in past years. The results will help you decide how hot, cold, wet, or windy it might be!

Date:

Astronomy

Mar. 23, 2013 Rise Set
Actual Time 7:20 AM EDT 7:38 PM EDT
Civil Twilight 6:53 AM EDT 8:05 PM EDT
Nautical Twilight 6:21 AM EDT 8:37 PM EDT
Astronomical Twilight 5:49 AM EDT 9:09 PM EDT
Moon 4:03 PM EDT (3/23) 4:56 AM EDT (3/23)
Length of Visible Light 13h 11m
Length of Day
12h 17m
Waxing Gibbous, 85% of the Moon is Illuminated
Mar 23
Waxing Gibbous
Mar 27
Full
Apr 3
Last Quarter
Apr 10
New
Apr 18
First Quarter

Hourly Weather History & Observations

Time (EDT) Temp. Windchill Dew Point Humidity Pressure Visibility Wind Dir Wind Speed Gust Speed Precip Events Conditions
12:53 AM 28.0 °F 22.8 °F 17.1 °F 63% 30.03 in 10.0 mi SSW 4.6 mph - N/A   Clear
1:53 AM 28.0 °F 22.8 °F 18.0 °F 66% 30.04 in 10.0 mi SW 4.6 mph - N/A   Clear
2:53 AM 28.0 °F 22.8 °F 18.0 °F 66% 30.03 in 9.0 mi SW 4.6 mph - N/A   Clear
3:53 AM 27.0 °F 23.0 °F 18.0 °F 69% 30.01 in 8.0 mi SW 3.5 mph - N/A   Clear
4:53 AM 27.0 °F 23.0 °F 17.1 °F 66% 30.01 in 9.0 mi SW 3.5 mph - N/A   Clear
5:53 AM 27.0 °F - 18.0 °F 69% 30.01 in 10.0 mi Calm Calm - N/A   Clear
6:53 AM 26.1 °F 21.9 °F 18.0 °F 71% 30.02 in 9.0 mi WSW 3.5 mph - N/A   Clear
7:53 AM 26.1 °F - 17.1 °F 69% 30.03 in 9.0 mi Calm Calm - N/A   Clear
8:53 AM 27.0 °F 23.0 °F 19.0 °F 72% 30.06 in 8.0 mi WSW 3.5 mph - N/A   Clear
9:53 AM 32.0 °F 27.5 °F 21.0 °F 64% 30.06 in 10.0 mi WSW 4.6 mph - N/A   Clear
10:53 AM 37.0 °F 33.3 °F 21.0 °F 52% 30.06 in 10.0 mi WNW 4.6 mph - N/A   Clear
11:53 AM 39.9 °F 32.9 °F 17.1 °F 40% 30.05 in 10.0 mi WNW 11.5 mph 18.4 mph N/A   Clear
12:53 PM 42.1 °F 39.2 °F 16.0 °F 35% 30.04 in 10.0 mi Variable 4.6 mph 17.3 mph N/A   Clear
1:53 PM 44.1 °F 39.5 °F 16.0 °F 32% 30.03 in 10.0 mi NW 8.1 mph 16.1 mph N/A   Clear
2:53 PM 45.0 °F 40.1 °F 17.1 °F 33% 30.01 in 10.0 mi West 9.2 mph 17.3 mph N/A   Partly Cloudy
3:53 PM 46.9 °F - 17.1 °F 30% 30.00 in 10.0 mi NNW 10.4 mph - N/A   Clear
4:53 PM 46.0 °F 40.6 °F 17.1 °F 31% 30.01 in 10.0 mi WNW 11.5 mph 18.4 mph N/A   Clear
5:53 PM 46.0 °F 39.9 °F 15.1 °F 29% 30.01 in 10.0 mi NNW 13.8 mph 18.4 mph N/A   Clear
6:53 PM 44.1 °F 38.6 °F 17.1 °F 34% 30.00 in 10.0 mi NNW 10.4 mph - N/A   Clear
7:53 PM 39.9 °F 35.1 °F 16.0 °F 38% 30.02 in 10.0 mi North 6.9 mph - N/A   Clear
8:53 PM 39.0 °F 32.8 °F 19.9 °F 46% 30.02 in 10.0 mi NNE 9.2 mph - N/A   Clear
9:53 PM 35.1 °F 28.6 °F 21.0 °F 57% 30.04 in 10.0 mi NE 8.1 mph - N/A   Clear
10:53 PM 33.1 °F 26.9 °F 21.0 °F 61% 30.04 in 10.0 mi NE 6.9 mph - N/A   Clear
11:53 PM 30.9 °F 22.2 °F 21.0 °F 67% 30.00 in 10.0 mi ENE 10.4 mph - N/A   Clear